DAL1405 KLAX-KSAN

Flight info

Callsign DAL1405
Flight time N/A
Altitude 13000
Route LAXX1 MZB
Aircraft B753/M-SDE2E3FGHIJ3J4J7RWXY/LB1

Departure

Time 2026-04-20 05:53
Airport Los Angeles International Airport (KLAX)

Arrival

Time N/A
Airport San Diego International Airport (KSAN)
Time Latitude Longitude Altitude Speed Heading
2026-04-20 05:36 33.94737 -118.40449 122 ft 0 kts 163°
2026-04-20 05:46 33.94741 -118.40450 121 ft 1 kts 186°
2026-04-20 05:46 33.94754 -118.40445 121 ft 2 kts 203°
2026-04-20 05:46 33.94769 -118.40444 121 ft 2 kts 169°
2026-04-20 05:46 33.94780 -118.40447 121 ft 0 kts 170°
2026-04-20 05:47 33.94792 -118.40452 121 ft 2 kts 135°
2026-04-20 05:47 33.94799 -118.40467 122 ft 1 kts 93°
2026-04-20 05:47 33.94798 -118.40474 122 ft 1 kts 79°
2026-04-20 05:47 33.94797 -118.40478 122 ft 0 kts 82°
2026-04-20 05:49 33.94800 -118.40456 121 ft 7 kts 83°
2026-04-20 05:50 33.94810 -118.40350 119 ft 14 kts 84°
2026-04-20 05:50 33.94820 -118.40241 119 ft 12 kts 84°
2026-04-20 05:50 33.94831 -118.40143 118 ft 11 kts 72°
2026-04-20 05:50 33.94893 -118.40078 117 ft 13 kts 39°
2026-04-20 05:51 33.94933 -118.39970 116 ft 14 kts 69°
2026-04-20 05:51 33.95013 -118.39922 114 ft 13 kts 341°
2026-04-20 05:51 33.95038 -118.39995 116 ft 5 kts 262°
2026-04-20 05:51 33.95037 -118.39996 116 ft 0 kts 262°
2026-04-20 05:52 33.95037 -118.40002 116 ft 2 kts 262°
2026-04-20 05:52 33.95016 -118.40192 119 ft 61 kts 263°
2026-04-20 05:52 33.94928 -118.41070 126 ft 148 kts 263°
2026-04-20 05:53 33.94775 -118.42556 496 ft 195 kts 263°
2026-04-20 05:53 33.94606 -118.44221 1282 ft 225 kts 263°
2026-04-20 05:53 33.94411 -118.46178 1119 ft 230 kts 263°
2026-04-20 05:53 33.94270 -118.48051 929 ft 223 kts 267°
2026-04-20 05:54 33.94232 -118.49155 72 ft 253 kts 268°